星链-35958(STARLINK-35958)

导读

STARLINK-35958是美国SpaceX星链计划旗下低轨通信卫星,于2025年12月31日发射入轨。星链项目旨在搭建全球卫星互联网,为偏远地区等提供高速网络服务,该卫星加入星座后,将进一步扩充星链卫星网络规模,增强全球覆盖能力与服务容量,助力持续推进星链全球组网部署。

基本信息
目录编号:
66822
目录名称:
STARLINK-35958
国际标识:
2025-280B
轨道中心:
EARTH
卫星名称:
星链-35958
卫星全名:
星链-35958(STARLINK-35958)
卫星状态:
在轨 (已飞行193 天)
发射日期:
2025-12-02 UTC
国别 :
美国 (US)
星等 :
--
轨道信息
数据来源 国际轨道数据
星历时间: 2026-06-13T04:56:16+0800
10小时前
查看轨道信息
半长轴: 6950.161km
偏心率: 0.0002934
轨道倾角: 70.002°
近地点辐角 262.024°
升交点赤经 94.458°
平近点角 98.058°
近地点: 569.984km
远地点: 574.064km
周期: 96.106分钟
每日圈数: 14.983404
详细信息
固有亮度:
5
最大亮度:
2.5
卫星平台:
Starlink V1.0
覆盖范围:
全球
运营商:
太空探索技术公司
运营商所在国:
美国
制造商(研发单位):
太空探索技术公司
制造商所在国:
美国
使用方式:
暂无
卫星简介
Starlink 计划是 SpaceX 推出的全球卫星互联网项目,通过发射低轨道卫星,为全球尤其是偏远地区提供高速、低延迟的互联网服务。自 2019 年起,Starlink 已部署数千颗卫星,旨在缩小全球数字鸿沟,推动互联网普及。该项目还为军事、航空等行业提供通信支持,带来广泛经济效益。
2D轨道图
3D轨道图
轨道高度分析图
轨道倾角分析图
轨道综合分析图
查看轨道综合分析图